Terug naar catalogus

NOAA 16 DEB

ActiefSSO
NORAD 41052·DEBRIS·🇺🇸 United States

Gelanceerd Sep 21, 2000 vanaf Vandenberg Space Force Base

Loading…

Volgende Passages (komende 24 uur)

TLE

VersSource: Space-Track

Epoch: Sep 14, 2026, 10:50 UTC

1 41052U 00055K   26257.45154762  .00000575  00000-0  31732-3 0  9994
2 41052  98.6042 264.7361 0161263 296.9271  61.5503 14.08837025554278

Volg NOAA 16 DEB in realtime met AllMySat

Download on the App Store